#timestamp,LO_Frequency,Hit 
1498320015.0,286047149.4,Y
1498320015.9,286047149.4,Y
1498320035.8,286047140.7,Y
1498320055.6,286047142.0,Y
1498320075.5,286047139.8,Y
1498320095.3,286047131.6,N
1498320115.1,286047129.4,N
1498320135.8,286047129.4,N
1498320155.7,286047133.7,N
1498320175.5,286047142.9,Y
1498320195.4,286047133.1,N
1498320215.2,286047126.1,N
1498320235.0,286047134.2,N
1498320235.9,286047134.2,N
1498320255.7,286047140.2,N
1498320275.6,286047134.5,N
1498320295.4,286047140.6,N
1498320315.2,286047143.5,N
1498320335.1,286047142.9,N
1498320336.0,286047142.9,N
1498320355.8,286047142.7,N
1498320375.6,286047145.5,N
1498320395.5,286047145.1,N
1498320415.3,286047144.1,N
1498320435.1,286047146.3,N
1498320455.9,286047149.3,N
1498320475.7,286047144.6,N
1498320495.5,286047139.5,N
1498320515.4,286047148.0,N
1498320535.2,286047146.1,N
1498320555.0,286047138.7,N
1498320555.9,286047138.7,N
1498320575.8,286047135.4,N
1498320595.6,286047131.4,N
1498320615.4,286047127.9,N
1498320635.2,286047126.8,N
1498320655.1,286047129.2,N
1498320656.0,286047129.2,N
1498320675.8,286047128.1,N
1498320695.6,286047136.2,N
1498320715.5,286047144.9,N
1498320735.3,286047146.9,N
1498320755.1,286047144.4,N
1498320775.9,286047144.4,N
1498320795.7,286047144.8,N
1498320815.5,286047154.7,N
1498320835.4,286047152.7,N
1498320855.2,286047143.4,N
1498320875.0,286047143.2,N
1498320875.9,286047143.2,N
1498320895.8,286047147.5,N
1498320915.6,286047143.8,N
1498320935.4,286047141.1,N
1498320955.2,286047135.7,N
1498320975.1,286047140.1,N
1498320976.0,286047140.1,N
1498320995.8,286047136.5,N
1498321015.6,286047137.2,N
1498321035.5,286047137.0,N
1498321055.3,286047131.1,N
1498321075.1,286047130.7,N
1498321095.9,286047127.5,N
1498321115.7,286047125.6,N
1498321135.5,286047125.9,N
1498321155.4,286047123.4,N
1498321175.2,286047123.5,N
1498321195.0,286047127.2,N
1498321195.9,286047127.2,N
1498321215.8,286047129.1,N
1498321235.6,286047130.6,N
1498321255.4,286047132.4,N
1498321275.2,286047130.5,N
1498321295.1,286047124.9,N
1498321296.0,286047124.9,N
1498321315.8,286047125.2,N
1498321335.6,286047128.1,N
1498321355.5,286047127.9,N
1498321375.3,286047132.0,N
1498321395.1,286047141.5,N
1498321415.9,286047141.9,N
1498321435.7,286047139.0,N
1498321455.5,286047139.7,N
1498321475.4,286047136.3,N
1498321495.2,286047137.7,N
1498321515.0,286047139.4,N
1498321515.9,286047139.4,N
1498321535.8,286047139.1,N
1498321555.6,286047147.7,N
1498321575.4,286047148.5,N
1498321595.2,286047151.2,N
1498321615.1,286047148.9,N
1498321616.0,286047148.9,N
1498321635.8,286047154.7,N
1498321655.6,286047152.3,N
1498321675.5,286047148.4,N
1498321695.3,286047142.5,N
1498321715.1,286047153.6,N
1498321735.9,286047159.1,N
1498321755.7,286047168.4,N
1498321775.5,286047164.8,N
1498321795.4,286047158.3,N
1498321815.2,286047165.3,N
1498321835.0,286047159.3,N
1498321835.9,286047159.3,N
1498321855.8,286047158.8,N
1498321875.6,286047155.4,N
1498321895.4,286047152.4,N
1498321915.2,286047156.5,N
1498321935.1,286047161.7,N
1498321936.0,286047161.7,N
1498321955.8,286047166.1,N
1498321975.6,286047182.8,N
1498321995.5,286047184.7,N
1498322015.3,286047185.3,N
1498322035.1,286047190.9,N
1498322055.9,286047182.1,N
1498322075.7,286047181.1,N
1498322095.5,286047177.0,N
1498322115.4,286047181.8,N
1498322135.2,286047183.2,N
1498322155.0,286047184.8,N
1498322155.9,286047184.8,N
1498322175.8,286047188.4,N
1498322195.6,286047178.9,N
1498322215.4,286047176.9,N
1498322235.2,286047171.6,N
1498322255.1,286047175.5,N
1498322256.0,286047175.5,N
1498322275.8,286047174.3,N
1498322295.6,286047176.1,N
1498322315.5,286047179.5,N
1498322335.3,286047177.2,N
1498322355.1,286047176.3,N
1498322375.9,286047174.6,N
1498322395.7,286047176.3,N
1498322415.5,286047175.5,N
1498322435.4,286047173.1,N
1498322455.2,286047180.1,N
1498322475.0,286047176.1,N
1498322475.9,286047176.1,N
1498322495.8,286047169.3,N
1498322515.6,286047168.2,N
1498322535.4,286047168.6,N
1498322555.2,286047168.2,N
1498322575.1,286047180.6,N
1498322576.0,286047180.6,N
1498322595.8,286047187.7,N
1498322615.6,286047189.5,N
1498322635.5,286047190.7,N
1498322655.3,286047190.4,N
1498322675.1,286047187.3,N
1498322695.9,286047186.2,N
1498322715.7,286047181.7,N
1498322735.5,286047182.5,N
1498322755.4,286047178.7,N
1498322775.2,286047175.8,N
1498322795.0,286047178.9,N
1498322795.9,286047178.9,N
1498322815.8,286047176.4,N
1498322835.6,286047174.2,N
1498322855.4,286047174.5,N
1498322875.3,286047178.8,N
1498322895.1,286047176.3,N
1498322896.0,286047176.3,N
1498322915.8,286047176.6,N
1498322935.6,286047176.6,N
1498322955.5,286047170.5,N
1498322975.3,286047172.7,N
1498322995.1,286047172.9,N
1498323015.9,286047173.5,N
1498323035.7,286047176.0,N
1498323055.5,286047175.0,N
1498323075.4,286047174.7,N
1498323095.2,286047186.3,N
1498323115.0,286047196.3,N
1498323115.9,286047196.3,N
1498323135.8,286047189.4,N
1498323155.6,286047187.4,N
1498323175.4,286047182.4,N
1498323195.3,286047186.2,N
1498323215.1,286047189.7,N
1498323216.0,286047189.7,N
1498323235.8,286047183.7,N
1498323255.6,286047188.2,N
1498323275.5,286047193.0,N
1498323295.3,286047191.4,N
1498323315.1,286047189.1,N
1498323335.9,286047198.0,N
1498323355.7,286047195.3,N
1498323375.5,286047196.8,N
1498323395.4,286047195.3,N
1498323415.2,286047200.6,N
1498323435.0,286047202.1,N
1498323435.9,286047202.1,N
1498323455.8,286047205.0,N
1498323475.6,286047208.6,N
1498323495.4,286047206.8,N
1498323515.3,286047200.8,N
1498323535.1,286047198.1,N
1498323536.0,286047198.1,N
1498323555.8,286047196.6,N
1498323575.6,286047200.2,N
1498323595.5,286047195.4,N
